[[{"header":{"parameterUnit":"m.s-1","parameterCategory":1,"la1":30.2992,"la2":30.254,"lo1":-89.0895,"lo2":-89.0443,"dy":0.0025,"dx":0.0025,"nx":19,"ny":19,"refTime":"2026-05-10T09:00:00:Z","depth":0,"parameterNumber":2,"parameterNumberName":"U-component_of_WINDS"},"data":[0,0,0,-1.6448,-1.6448,-1.6402,-1.6402,-1.6373,-1.6373,0,0,0,0,0,0,0,0,0,0,0,-1.6479,-1.648,-1.6448,-1.6448,-1.6402,-1.6402,-1.6373,-1.6373,0,0,0,0,0,0,0,0,0,0,0,-1.6479,-1.648,-1.648,-1.6448,-1.6402,-1.6402,-1.6373,-1.6397,0,0,0,0,0,0,0,0,0,0,-1.6437,-1.6482,-1.6479,-1.648,-1.6447,-1.6402,-1.6402,-1.6398,-1.6396,-1.6407,0,-1.642,0,-1.6396,-1.6373,-1.6373,0,0,0,-1.6435,-1.6484,-1.6456,-1.648,-1.6447,-1.6403,-1.6419,-1.6396,-1.6394,-1.6404,-1.6419,-1.6418,-1.6396,-1.6373,-1.6373,-1.6474,-1.6475,0,0,-1.6438,-1.6481,-1.6458,-1.6455,-1.6463,-1.6421,-1.6418,-1.6395,-1.6415,-1.6419,-1.6416,-1.6395,-1.6373,-1.6373,-1.6473,-1.6475,0,0,0,-1.6453,-1.6484,-1.6455,-1.6457,-1.6447,-1.642,-1.6416,-1.6416,-1.6403,-1.6416,-1.6395,-1.6373,-1.6373,-1.6472,-1.6474,-1.6569,0,0,0,-1.6454,-1.6492,-1.6457,-1.6483,-1.6447,-1.6431,-1.6439,-1.6404,-1.64,-1.6395,-1.6373,-1.6373,-1.6471,-1.6473,-1.6564,-1.6608,0,0,0,-1.6476,-1.6495,-1.6494,-1.6485,-1.6467,-1.643,-1.6415,-1.6403,-1.6388,-1.6373,-1.6373,-1.647,-1.6473,-1.6559,-1.66,-1.6648,0,0,0,-1.6513,-1.6581,-1.6496,-1.6563,-1.6468,-1.6488,-1.6415,-1.6428,-1.6426,-1.6373,-1.6471,-1.6474,-1.6558,-1.6595,-1.6643,-1.6697,-1.6723,0,0,-1.6623,-1.6596,-1.6631,-1.6554,-1.6601,-1.6492,-1.6552,-1.651,-1.6469,-1.6475,-1.6477,-1.6566,-1.66,-1.6647,-1.685,-1.6871,0,0,0,-1.6681,-1.6707,-1.671,-1.671,-1.6678,-1.6654,-1.6597,-1.6581,-1.6583,-1.6481,-1.6593,-1.6612,-1.6638,-1.6662,-1.668,-1.6699,-1.6486,-1.6486,-1.6485,-1.6902,-1.6843,-1.6898,-1.6835,-1.6835,-1.6774,-1.6769,-1.6737,-1.668,-1.6707,-1.671,-1.684,-1.687,-1.6883,-1.6904,-1.6732,-1.6732,-1.6732,-1.6733,-1.7058,-1.7087,-1.7006,-1.7031,-1.6969,-1.699,-1.6933,-1.6891,-1.6902,-1.6834,-1.6854,-1.6787,-1.6908,-1.6923,-1.6739,-1.6738,-1.6737,-1.6737,-1.6736,-1.7199,-1.7202,-1.7179,-1.7171,-1.7171,-1.7102,-1.7115,-1.7058,-1.7005,-1.7024,-1.7021,-1.7019,-1.7011,-1.7026,-1.7026,-1.7027,-1.7027,-1.7027,-1.7028,-1.7354,-1.7325,-1.7342,-1.7311,-1.7302,-1.7283,-1.722,-1.721,-1.7184,-1.7141,-1.7141,-1.7082,-1.6929,-1.6893,-1.7034,-1.7033,-1.7032,-1.7032,-1.7031,-1.754,-1.7487,-1.7515,-1.7506,-1.7463,-1.7467,-1.7391,-1.7375,-1.7357,-1.7366,-1.73,-1.7196,-1.7165,-1.715,-1.712,-1.7312,-1.7312,-1.7312,-1.7312,-1.766,-1.7636,-1.765,-1.7639,-1.7621,-1.7555,-1.7587,-1.7538,-1.7479,-1.7465,-1.7428,-1.7382,-1.7369,-1.7346,-1.7327,-1.7298,-1.7531,-1.7531,-1.7531,-1.7771,-1.7743,-1.7782,-1.7722,-1.7683,-1.7652,-1.7681,-1.7671,-1.7593,-1.7539,-1.7452,-1.7443,-1.7368,-1.7347,-1.7295,-1.7267,-1.7213,0,0]},{"header":{"parameterUnit":"m.s-1","parameterCategory":1,"la1":30.2992,"la2":30.254,"lo1":-89.0895,"lo2":-89.0443,"dy":0.0025,"dx":0.0025,"nx":19,"ny":19,"refTime":"2026-05-10T09:00:00:Z","depth":0,"parameterNumber":3,"parameterNumberName":"V-component_of_WINDS"},"data":[0,0,0,-2.1604,-2.1603,-2.1574,-2.1574,-2.1544,-2.1544,0,0,0,0,0,0,0,0,0,0,0,-2.1619,-2.1619,-2.1604,-2.1603,-2.1574,-2.1574,-2.1544,-2.1544,0,0,0,0,0,0,0,0,0,0,0,-2.1619,-2.1619,-2.1619,-2.1603,-2.1574,-2.1574,-2.1544,-2.1563,0,0,0,0,0,0,0,0,0,0,-2.159,-2.1611,-2.1619,-2.1619,-2.1603,-2.1574,-2.1574,-2.1564,-2.1562,-2.1561,0,-2.1563,0,-2.1553,-2.1542,-2.1542,0,0,0,-2.1598,-2.1612,-2.1599,-2.1619,-2.1603,-2.1574,-2.1586,-2.1563,-2.156,-2.1558,-2.1563,-2.1561,-2.1553,-2.1542,-2.1542,-2.1555,-2.1556,0,0,-2.16,-2.1617,-2.16,-2.1597,-2.1604,-2.1587,-2.1585,-2.1561,-2.1566,-2.1563,-2.156,-2.1552,-2.1542,-2.1542,-2.1555,-2.1555,0,0,0,-2.1608,-2.1618,-2.1605,-2.1599,-2.1593,-2.1586,-2.1584,-2.1568,-2.1562,-2.156,-2.1552,-2.1542,-2.1542,-2.1555,-2.1555,-2.1586,0,0,0,-2.1608,-2.1623,-2.1606,-2.1616,-2.1594,-2.158,-2.1591,-2.1563,-2.156,-2.1552,-2.1542,-2.1542,-2.1554,-2.1555,-2.1585,-2.1598,0,0,0,-2.1618,-2.1624,-2.1622,-2.1617,-2.1605,-2.158,-2.1573,-2.1562,-2.1555,-2.1542,-2.1541,-2.1554,-2.1555,-2.1583,-2.1596,-2.1606,0,0,0,-2.1634,-2.165,-2.1623,-2.1637,-2.1605,-2.16,-2.1573,-2.1568,-2.1561,-2.1542,-2.1555,-2.1555,-2.1583,-2.1595,-2.1605,-2.1618,-2.1625,0,0,-2.1664,-2.1655,-2.1662,-2.1636,-2.164,-2.1603,-2.1611,-2.1588,-2.1571,-2.1561,-2.1561,-2.1585,-2.1596,-2.1606,-2.1659,-2.1665,0,0,0,-2.1677,-2.1683,-2.168,-2.1674,-2.1657,-2.1642,-2.1616,-2.1606,-2.1597,-2.157,-2.1591,-2.1597,-2.1602,-2.1607,-2.1612,-2.1615,-2.1559,-2.1558,-2.1558,-2.1746,-2.1722,-2.1732,-2.1705,-2.1699,-2.167,-2.1662,-2.1645,-2.1624,-2.1629,-2.1626,-2.1661,-2.1668,-2.1672,-2.1675,-2.1631,-2.1631,-2.1631,-2.1631,-2.1788,-2.1792,-2.1761,-2.176,-2.1735,-2.1733,-2.1705,-2.1689,-2.1683,-2.1662,-2.1665,-2.1645,-2.1679,-2.168,-2.1634,-2.1633,-2.1633,-2.1633,-2.1633,-2.1831,-2.1828,-2.1816,-2.1803,-2.1795,-2.1765,-2.176,-2.1737,-2.1715,-2.1718,-2.1711,-2.1711,-2.1707,-2.1716,-2.1716,-2.1716,-2.1716,-2.1717,-2.1717,-2.188,-2.1865,-2.1864,-2.1845,-2.1836,-2.1822,-2.1791,-2.1782,-2.1765,-2.1748,-2.1748,-2.1725,-2.1687,-2.1678,-2.1718,-2.1718,-2.1718,-2.1718,-2.1718,-2.1932,-2.1915,-2.1914,-2.1906,-2.188,-2.1872,-2.1841,-2.1823,-2.1811,-2.1809,-2.1784,-2.176,-2.1749,-2.1744,-2.1737,-2.179,-2.179,-2.179,-2.179,-2.1968,-2.1959,-2.1951,-2.1938,-2.1923,-2.1894,-2.189,-2.1865,-2.1837,-2.1827,-2.1816,-2.1803,-2.18,-2.179,-2.1785,-2.1778,-2.184,-2.184,-2.184,-2.1998,-2.1986,-2.1989,-2.1961,-2.1938,-2.1919,-2.1914,-2.1899,-2.1863,-2.1842,-2.1819,-2.1817,-2.1796,-2.1791,-2.1772,-2.1765,-2.175,0,0]}]]